GW5071 Weather Reports


time (UTC)temp
F
wind
direction
speed
knots
gust
knots
rain 1hr
in
rain 24hr
in
rain mn
in
humidity
%
barometer
mb
20260502130249 51 229 7.0 7.8 0.00 0.00 0.00 92 1014.5
20260502123735 51 250 4.3 7.0 0.00 0.00 0.00 92 1014.7
20260502123232 51 228 4.3 6.1 0.00 0.00 0.00 92 1014.5
20260502122728 51 212 4.3 7.0 0.00 0.00 0.00 91 1014.5
20260502122224 51 229 4.3 6.1 0.00 0.00 0.00 91 1014.4
20260502121723 51 230 6.1 7.8 0.00 0.00 0.00 91 1014.2
20260502121220 51 225 5.2 7.8 0.00 0.00 0.00 91 1014.3
20260502120716 51 217 5.2 7.8 0.00 0.00 0.00 91 1014.4
20260502120213 51 220 5.2 7.0 0.00 0.00 0.00 91 1014.4
20260502115711 51 235 4.3 7.8 0.00 0.00 0.00 91 1014.4
20260502115208 51 227 4.3 7.0 0.00 0.00 0.00 90 1014.3
20260502114704 50 234 4.3 6.1 0.00 0.00 0.00 91 1014.3
20260502114201 50 224 3.5 4.3 0.00 0.00 0.00 91 1014.1
20260502113658 50 175 4.3 4.3 0.00 0.00 0.00 91 1013.8
20260502113156 50 215 3.5 7.0 0.00 0.00 0.00 91 1014.2
20260502112654 50 222 4.3 7.8 0.00 0.00 0.00 91 1013.9
20260502112151 51 212 4.3 7.8 0.00 0.00 0.00 91 1014.3
20260502111648 51 198 1.7 7.8 0.00 0.00 0.00 91 1014.1
20260502111146 51 222 6.1 6.1 0.00 0.00 0.00 91 1014.3
20260502110643 51 227 4.3 8.7 0.00 0.00 0.00 91 1014.4
20260502110140 50 241 5.2 9.6 0.00 0.00 0.00 91 1014.3
20260502105638 50 226 6.1 8.7 0.00 0.00 0.00 91 1014.2
20260502105135 50 250 6.1 11.3 0.00 0.00 0.00 91 1014.5
20260502104632 50 229 7.8 13.0 0.00 0.00 0.00 91 1014.4
20260502104129 50 237 5.2 9.6 0.00 0.00 0.00 91 1014.4
20260502103627 50 234 8.7 11.3 0.00 0.00 0.00 91 1014.1
20260502103125 50 231 6.1 10.4 0.00 0.00 0.00 90 1014.2
20260502102621 50 235 9.6 11.3 0.00 0.00 0.00 90 1014.0
20260502102112 50 225 4.3 9.6 0.00 0.00 0.00 90 1013.8
20260502101610 50 222 13.0 13.9 0.00 0.00 0.00 90 1013.9
20260502101108 50 225 7.8 9.6 0.00 0.00 0.00 90 1013.7
20260502100607 50 222 5.2 12.2 0.00 0.00 0.00 90 1014.0
20260502100105 50 220 3.5 10.4 0.00 0.00 0.00 90 1013.9
20260502091038 50 220 12.2 12.2 0.00 0.00 0.00 89 1013.9
20260502090535 50 225 9.6 12.2 0.00 0.00 0.00 89 1014.1
20260502071430 50 235 9.6 15.6 0.00 0.00 0.00 86 1014.2
20260502070928 50 224 13.9 15.6 0.00 0.00 0.00 86 1014.3
20260502070426 50 225 11.3 19.1 0.00 0.00 0.00 86 1014.2
20260502065924 50 223 10.4 14.8 0.00 0.00 0.00 86 1014.0
20260502065422 50 243 7.8 13.0 0.00 0.00 0.00 86 1014.2
20260502064920 50 230 11.3 18.2 0.00 0.00 0.00 86 1014.2
20260502064417 50 224 7.8 13.0 0.00 0.00 0.00 86 1014.4
20260502063914 50 236 13.0 13.9 0.00 0.00 0.00 86 1014.5
20260502063412 50 225 7.0 8.7 0.00 0.00 0.00 87 1014.4
20260502062910 50 236 7.8 8.7 0.00 0.00 0.00 87 1014.6
20260502062407 50 231 8.7 9.6 0.00 0.00 0.00 87 1014.6
20260502061906 50 232 7.8 13.0 0.00 0.00 0.00 87 1014.9
20260502061403 50 249 4.3 8.7 0.00 0.00 0.00 88 1014.8
20260502060859 50 225 5.2 10.4 0.00 0.00 0.00 88 1015.0
20260502060358 50 248 4.3 9.6 0.00 0.00 0.00 88 1014.8
20260502055856 50 234 8.7 12.2 0.00 0.00 0.00 87 1014.5
20260502055354 50 213 7.0 9.6 0.00 0.00 0.00 88 1014.5
20260502054854 50 205 6.1 10.4 0.00 0.00 0.00 87 1014.4
20260502054350 50 213 4.3 8.7 0.00 0.00 0.00 87 1014.3
20260502053848 50 202 7.0 11.3 0.00 0.00 0.00 87 1014.6
20260502053345 50 212 7.8 10.4 0.00 0.00 0.00 87 1014.4
20260502052843 50 195 4.3 13.0 0.00 0.00 0.00 87 1014.4
20260502052341 50 207 5.2 10.4 0.00 0.00 0.00 87 1014.3
20260502051838 50 220 5.2 9.6 0.00 0.00 0.00 87 1014.4
20260502051337 50 198 6.1 11.3 0.00 0.00 0.00 87 1014.5
20260502050833 50 213 4.3 9.6 0.00 0.00 0.00 86 1014.4
20260502050329 50 213 7.8 11.3 0.00 0.00 0.00 86 1014.6
20260502045826 50 207 10.4 13.0 0.00 0.00 0.00 85 1014.7
20260502045323 50 219 9.6 13.0 0.00 0.00 0.00 85 1014.6
20260502044821 50 217 6.1 13.0 0.00 0.00 0.00 85 1014.6
20260502044316 50 206 7.0 13.9 0.00 0.00 0.00 85 1014.6
20260502043813 50 199 7.0 13.9 0.00 0.00 0.00 85 1014.4
20260502043311 50 211 8.7 13.0 0.00 0.00 0.00 85 1014.4
20260502042810 50 208 6.1 12.2 0.00 0.00 0.00 85 1014.6
20260502042308 50 215 6.1 13.9 0.00 0.00 0.00 86 1014.8
20260502041805 50 202 9.6 13.9 0.00 0.00 0.00 87 1014.6
20260502041302 50 215 7.8 14.8 0.00 0.00 0.00 88 1014.7
20260502040800 50 222 10.4 14.8 0.00 0.00 0.00 89 1014.4
20260502040256 50 218 7.8 12.2 0.00 0.00 0.00 89 1014.6
20260502035752 50 196 7.8 13.0 0.00 0.00 0.00 88 1014.5
20260502035249 50 194 7.0 11.3 0.00 0.00 0.00 88 1014.9
20260502034746 50 221 7.8 14.8 0.00 0.00 0.00 87 1014.5
20260502034245 50 217 9.6 14.8 0.00 0.00 0.00 87 1014.6
20260502033742 50 210 11.3 15.6 0.00 0.00 0.00 87 1014.5
20260502033240 50 211 6.1 16.5 0.00 0.00 0.00 87 1014.6
20260502032736 50 212 11.3 15.6 0.00 0.00 0.00 86 1014.5
20260502032232 50 210 6.1 16.5 0.00 0.00 0.00 86 1014.5
20260502031731 50 208 7.0 15.6 0.00 0.00 0.00 86 1014.8
20260502031228 50 206 10.4 18.2 0.00 0.00 0.00 86 1014.7
20260502030727 50 205 8.7 18.2 0.00 0.00 0.00 86 1014.7
20260502030224 50 222 15.6 16.5 0.00 0.00 0.00 86 1014.7
20260502025721 50 218 11.3 14.8 0.00 0.00 0.00 86 1014.9
20260502025219 50 194 6.1 15.6 0.00 0.00 0.00 85 1015.0
20260502024717 50 203 8.7 16.5 0.00 0.00 0.00 85 1014.6
20260502024215 50 205 13.0 17.4 0.00 0.00 0.00 85 1014.9
20260502023713 50 210 7.0 13.0 0.00 0.00 0.00 84 1014.6
20260502023210 50 202 12.2 18.2 0.00 0.00 0.00 83 1014.8
20260502022707 50 222 8.7 16.5 0.00 0.00 0.00 83 1014.8
20260502022203 50 217 13.0 20.0 0.00 0.00 0.00 82 1014.8
20260502021701 50 206 9.6 17.4 0.00 0.00 0.00 82 1014.5
20260502021158 50 207 17.4 17.4 0.00 0.00 0.00 81 1014.8
20260502020655 50 200 16.5 19.1 0.00 0.00 0.00 81 1014.6
20260502020152 50 212 14.8 20.0 0.00 0.00 0.00 82 1014.6
20260502015650 50 214 13.0 19.1 0.00 0.00 0.00 82 1014.9
20260502015146 50 214 14.8 19.1 0.00 0.00 0.00 82 1014.8
20260502014644 50 198 10.4 19.1 0.00 0.00 0.00 82 1014.5
20260502014140 50 224 13.9 14.8 0.00 0.00 0.00 82 1014.7
20260502013636 50 228 4.3 17.4 0.00 0.00 0.00 83 1014.3
20260502013132 50 210 12.2 18.2 0.00 0.00 0.00 83 1014.7
20260502012629 50 204 7.0 13.0 0.00 0.00 0.00 82 1014.6
20260502012128 50 209 6.1 15.6 0.00 0.00 0.00 82 1014.4
20260502011624 50 204 6.1 13.9 0.00 0.00 0.00 82 1014.4
20260502011120 50 207 9.6 15.6 0.00 0.00 0.00 81 1014.5
20260502010618 50 202 11.3 13.0 0.00 0.00 0.00 80 1014.3
20260502010114 51 208 9.6 13.0 0.00 0.00 0.00 79 1014.4
20260502005612 51 221 6.1 14.8 0.00 0.00 0.00 79 1014.3
20260502005109 51 204 6.1 11.3 0.00 0.00 0.00 79 1014.4
20260502004604 51 214 8.7 12.2 0.00 0.00 0.00 79 1014.3
20260502004101 51 201 6.1 12.2 0.00 0.00 0.00 78 1014.2
20260502003600 51 176 2.6 14.8 0.00 0.00 0.00 77 1014.3
20260502003056 51 195 7.8 12.2 0.00 0.00 0.00 76 1014.2
20260502002552 51 197 12.2 12.2 0.00 0.00 0.00 76 1014.0
20260502002050 51 211 11.3 13.0 0.00 0.00 0.00 78 1014.0
20260502001548 50 194 10.4 14.8 0.00 0.00 0.00 80 1014.0
20260502001044 50 192 7.8 11.3 0.00 0.00 0.00 82 1014.0
20260502000543 50 205 7.0 13.0 0.00 0.00 0.00 83 1014.1
20260502000040 50 203 9.6 12.2 0.00 0.00 0.00 84 1014.0
20260501235535 50 198 7.8 13.9 0.00 0.00 0.00 83 1013.8
20260501235031 50 207 11.3 11.3 0.00 0.00 0.00 85 1014.0
20260501234528 50 192 6.1 13.0 0.00 0.00 0.00 85 1014.0
20260501234026 50 200 4.3 13.0 0.00 0.00 0.00 85 1013.8
20260501233523 50 214 9.6 13.9 0.00 0.00 0.00 84 1013.8
20260501233020 50 191 9.6 13.0 0.00 0.00 0.00 84 1013.6
20260501232516 50 204 10.4 15.6 0.00 0.00 0.00 83 1013.7
20260501232013 51 199 8.7 12.2 0.00 0.00 0.00 82 1013.5
20260501231511 51 206 7.8 17.4 0.00 0.00 0.00 82 1013.6
20260501231009 51 196 8.7 13.9 0.00 0.00 0.00 81 1013.7
20260501230508 51 183 7.8 14.8 0.00 0.00 0.00 80 1013.6
20260501230005 51 193 9.6 11.3 0.00 0.00 0.00 80 1013.6
20260501225503 52 198 11.3 13.9 0.00 0.00 0.00 79 1013.5
20260501224958 52 203 7.0 14.8 0.00 0.00 0.00 79 1013.7
20260501224456 52 213 10.4 13.0 0.00 0.00 0.00 79 1013.7
20260501223953 52 216 7.0 14.8 0.00 0.00 0.00 78 1013.6
20260501223449 52 210 9.6 16.5 0.00 0.00 0.00 78 1013.8
20260501222944 52 207 4.3 15.6 0.00 0.00 0.00 77 1013.5
20260501222442 52 217 7.8 14.8 0.00 0.00 0.00 77 1013.5
20260501221938 53 220 7.8 13.0 0.00 0.00 0.00 76 1013.8
20260501221435 52 208 8.7 18.2 0.00 0.00 0.00 75 1013.7
20260501220933 52 202 7.8 20.0 0.00 0.00 0.00 74 1013.6
20260501220431 53 199 7.8 15.6 0.00 0.00 0.00 74 1013.6
20260501215926 52 221 12.2 17.4 0.00 0.00 0.00 73 1013.8
20260501215424 53 203 8.7 19.1 0.00 0.00 0.00 73 1013.5
20260501214919 53 218 11.3 17.4 0.00 0.00 0.00 72 1013.5
20260501214414 53 204 7.8 21.7 0.00 0.00 0.00 73 1013.6
20260501213910 53 208 9.6 18.2 0.00 0.00 0.00 71 1013.7
20260501213407 53 204 15.6 16.5 0.00 0.00 0.00 70 1013.7
20260501212902 53 209 12.2 14.8 0.00 0.00 0.00 71 1013.4
20260501212400 54 197 7.8 15.6 0.00 0.00 0.00 69 1013.7
20260501211857 54 220 10.4 17.4 0.00 0.00 0.00 68 1013.7
20260501211354 53 203 7.0 16.5 0.00 0.00 0.00 69 1013.6
20260501210851 54 203 11.3 16.5 0.00 0.00 0.00 67 1013.5
20260501210348 54 221 16.5 21.7 0.00 0.00 0.00 66 1013.4
20260501205844 55 217 14.8 17.4 0.00 0.00 0.00 67 1013.6
20260501205341 55 213 11.3 14.8 0.00 0.00 0.00 68 1013.4
20260501204838 54 218 12.2 16.5 0.00 0.00 0.00 69 1013.3
20260501204335 55 214 10.4 14.8 0.00 0.00 0.00 68 1013.3
20260501203831 54 208 12.2 19.1 0.00 0.00 0.00 66 1013.4
20260501203329 54 211 16.5 16.5 0.00 0.00 0.00 66 1013.3
20260501202826 54 213 8.7 19.1 0.00 0.00 0.00 69 1013.3
20260501202323 54 196 5.2 14.8 0.00 0.00 0.00 72 1013.3
20260501201820 55 203 7.0 15.6 0.00 0.00 0.00 71 1013.1
20260501201316 55 209 12.2 13.9 0.00 0.00 0.00 69 1013.3
20260501200812 55 189 12.2 16.5 0.00 0.00 0.00 69 1013.3
20260501200309 56 211 6.1 11.3 0.00 0.00 0.00 69 1013.3
20260501195808 55 205 12.2 15.6 0.00 0.00 0.00 71 1013.4
20260501195305 55 216 10.4 13.0 0.00 0.00 0.00 71 1013.6
20260501194759 56 203 7.8 12.2 0.00 0.00 0.00 71 1013.5
20260501194255 58 180 7.0 13.0 0.00 0.00 0.00 67 1013.4
20260501193751 57 240 7.8 13.0 0.00 0.00 0.00 63 1013.4
20260501193250 58 213 6.1 9.6 0.00 0.00 0.00 63 1013.3
20260501192747 57 229 10.4 13.9 0.00 0.00 0.00 62 1013.5
20260501192243 57 223 8.7 14.8 0.00 0.00 0.00 62 1013.5
20260501191741 57 224 6.1 14.8 0.00 0.00 0.00 63 1013.6
20260501191238 57 221 8.7 13.9 0.00 0.00 0.00 60 1013.7
20260501190735 58 217 8.7 11.3 0.00 0.00 0.00 62 1013.9
20260501190230 57 183 3.5 12.2 0.00 0.00 0.00 64 1013.8
20260501185726 58 206 7.0 11.3 0.00 0.00 0.00 62 1014.0
20260501185222 56 224 7.0 13.0 0.00 0.00 0.00 65 1014.0
20260501184719 58 218 7.8 12.2 0.00 0.00 0.00 61 1013.9
20260501184214 57 221 8.7 17.4 0.00 0.00 0.00 62 1013.8
20260501183710 57 202 9.6 13.9 0.00 0.00 0.00 62 1014.0
20260501183208 57 212 12.2 15.6 0.00 0.00 0.00 61 1014.1
20260501182704 56 227 8.7 16.5 0.00 0.00 0.00 65 1014.1
20260501182200 56 213 9.6 14.8 0.00 0.00 0.00 65 1014.1
20260501181657 57 212 7.8 14.8 0.00 0.00 0.00 63 1014.0
20260501181155 55 229 12.2 18.2 0.00 0.00 0.00 65 1014.1
20260501180653 56 225 13.0 18.2 0.00 0.00 0.00 62 1014.0
20260501180148 55 229 9.6 17.4 0.00 0.00 0.00 65 1014.1
20260501175645 56 204 8.7 12.2 0.00 0.00 0.00 65 1014.1
20260501175143 56 223 12.2 17.4 0.00 0.00 0.00 65 1014.1
20260501174639 55 232 13.9 16.5 0.00 0.00 0.00 66 1014.2
20260501174137 56 217 12.2 16.5 0.00 0.00 0.00 66 1014.1
20260501173634 56 216 10.4 13.0 0.00 0.00 0.00 67 1014.1
20260501173131 55 222 13.0 14.8 0.00 0.00 0.00 66 1014.4
20260501172626 55 215 10.4 14.8 0.00 0.00 0.00 67 1014.3
20260501172121 54 214 2.6 13.0 0.00 0.00 0.00 68 1014.3
20260501171618 54 209 8.7 13.9 0.00 0.00 0.00 66 1014.5
20260501171115 54 222 10.4 17.4 0.00 0.00 0.00 64 1014.5
20260501170612 55 222 6.1 13.0 0.00 0.00 0.00 62 1014.5
20260501170109 55 187 4.3 9.6 0.00 0.00 0.00 67 1014.5
20260501165606 55 217 7.8 11.3 0.00 0.00 0.00 64 1014.5
20260501165104 54 203 7.0 11.3 0.00 0.00 0.00 66 1014.7
20260501164601 55 190 5.2 12.2 0.00 0.00 0.00 63 1014.6
20260501164058 55 217 4.3 11.3 0.00 0.00 0.00 65 1014.5
20260501163555 55 183 7.0 11.3 0.00 0.00 0.00 63 1014.6
20260501163052 56 195 5.2 11.3 0.00 0.00 0.00 60 1014.8
20260501162548 55 170 5.2 10.4 0.00 0.00 0.00 60 1014.7
20260501162045 53 211 7.8 13.0 0.00 0.00 0.00 64 1014.8
20260501161542 55 202 7.0 12.2 0.00 0.00 0.00 61 1015.0
20260501161038 54 200 7.8 12.2 0.00 0.00 0.00 59 1015.1
20260501160536 55 210 7.8 8.7 0.00 0.00 0.00 60 1015.0
20260501160033 54 209 7.0 11.3 0.00 0.00 0.00 62 1015.0
20260501155529 54 220 10.4 13.9 0.00 0.00 0.00 61 1015.2
20260501155026 56 192 6.1 7.8 0.00 0.00 0.00 60 1015.1
20260501154524 55 216 6.1 9.6 0.00 0.00 0.00 55 1015.2
20260501154020 55 222 8.7 13.0 0.00 0.00 0.00 54 1015.1
20260501153518 55 254 4.3 7.0 0.00 0.00 0.00 54 1015.2
20260501153014 55 269 5.2 6.1 0.00 0.00 0.00 52 1015.1
20260501152511 55 275 6.1 8.7 0.00 0.00 0.00 51 1015.3
20260501152009 55 273 2.6 8.7 0.00 0.00 0.00 49 1015.1
20260501151505 54 289 5.2 5.2 0.00 0.00 0.00 50 1015.4
20260501151002 54 301 7.8 7.8 0.00 0.00 0.00 51 1015.2
20260501150457 54 313 8.7 11.3 0.00 0.00 0.00 55 1015.1
20260501145954 53 302 6.1 8.7 0.00 0.00 0.00 51 1014.9
20260501145450 54 324 7.0 8.7 0.00 0.00 0.00 54 1014.9
20260501144948 56 313 4.3 5.2 0.00 0.00 0.00 49 1015.0
20260501144443 57 269 0.0 3.5 0.00 0.00 0.00 49 1014.9
20260501143940 57 328 4.3 5.2 0.00 0.00 0.00 51 1014.8
20260501143436 56 6 0.9 3.5 0.00 0.00 0.00 51 1015.0
20260501142932 54 336 5.2 5.2 0.00 0.00 0.00 54 1015.0
20260501142431 53 310 4.3 7.0 0.00 0.00 0.00 54 1015.0
20260501141926 53 283 7.0 7.0 0.00 0.00 0.00 56 1015.1